| time (UTC) | temp F | wind direction | speed MPH | gust MPH | rain 1hr in | rain 24hr in | rain mn in | humidity % | barometer mb |
| 20260507060937 | 52 | 287 | 1.0 | 3.0 | 0.00 | 0.18 | 0.01 | 87 | 1011.1 |
| 20260507060431 | 52 | 296 | 1.0 | 4.0 | 0.00 | 0.18 | 0.01 | 87 | 1010.8 |
| 20260507055925 | 52 | 305 | 1.0 | 4.0 | 0.00 | 0.18 | 0.01 | 87 | 1010.8 |
| 20260507055418 | 53 | 309 | 1.0 | 3.0 | 0.00 | 0.18 | 0.01 | 87 | 1010.9 |
| 20260507054913 | 53 | 299 | 1.0 | 4.0 | 0.00 | 0.18 | 0.01 | 86 | 1010.9 |
| 20260507054408 | 53 | 319 | 2.0 | 4.0 | 0.00 | 0.18 | 0.01 | 87 | 1010.9 |
| 20260507053355 | 53 | 315 | 2.0 | 5.0 | 0.00 | 0.18 | 0.01 | 87 | 1010.8 |
| 20260507052849 | 53 | 29 | 1.0 | 4.0 | 0.00 | 0.18 | 0.01 | 88 | 1010.8 |
| 20260507052343 | 53 | 302 | 1.0 | 2.0 | 0.00 | 0.18 | 0.01 | 88 | 1010.8 |
| 20260507051840 | 53 | 38 | 0.0 | 2.0 | 0.01 | 0.18 | 0.01 | 88 | 1010.8 |
| 20260507051341 | 53 | 348 | 0.0 | 2.0 | 0.01 | 0.18 | 0.01 | 88 | 1010.8 |
| 20260507050841 | 53 | 313 | 1.0 | 4.0 | 0.01 | 0.18 | 0.01 | 87 | 1011.1 |
| 20260507050341 | 53 | 309 | 1.0 | 4.0 | 0.01 | 0.18 | 0.01 | 88 | 1011.1 |
| 20260507045839 | 54 | 318 | 1.0 | 4.0 | 0.01 | 0.18 | 0.01 | 88 | 1010.8 |
| 20260507044838 | 54 | 297 | 2.0 | 5.0 | 0.01 | 0.18 | 0.01 | 89 | 1010.9 |
| 20260507044336 | 54 | 304 | 2.0 | 5.0 | 0.01 | 0.18 | 0.01 | 89 | 1010.8 |
| 20260507043337 | 54 | 311 | 1.0 | 2.0 | 0.01 | 0.18 | 0.01 | 89 | 1010.8 |
| 20260507042836 | 54 | 311 | 1.0 | 3.0 | 0.02 | 0.18 | 0.01 | 89 | 1010.8 |
| 20260507041834 | 55 | 298 | 1.0 | 3.0 | 0.02 | 0.17 | 0.00 | 88 | 1010.6 |
| 20260507040834 | 55 | 306 | 2.0 | 5.0 | 0.03 | 0.17 | 0.00 | 88 | 1010.5 |
| 20260507040334 | 55 | 302 | 2.0 | 5.0 | 0.04 | 0.17 | 0.00 | 88 | 1010.6 |
| 20260507035834 | 55 | 347 | 1.0 | 3.0 | 0.04 | 0.17 | 0.17 | 88 | 1010.5 |
| 20260507035329 | 55 | 306 | 1.0 | 8.0 | 0.04 | 0.17 | 0.17 | 88 | 1010.5 |
| 20260507034832 | 55 | 281 | 2.0 | 8.0 | 0.04 | 0.17 | 0.17 | 88 | 1010.0 |
| 20260507034329 | 55 | 298 | 3.0 | 8.0 | 0.04 | 0.17 | 0.17 | 88 | 1010.3 |
| 20260507033829 | 55 | 321 | 2.0 | 8.0 | 0.04 | 0.17 | 0.17 | 88 | 1010.1 |
| 20260507033328 | 56 | 306 | 1.0 | 3.0 | 0.04 | 0.17 | 0.17 | 89 | 1010.1 |
| 20260507032829 | 56 | 320 | 1.0 | 3.0 | 0.03 | 0.16 | 0.16 | 88 | 1010.0 |
| 20260507032329 | 56 | 316 | 1.0 | 3.0 | 0.03 | 0.16 | 0.16 | 88 | 1010.4 |
| 20260507031830 | 57 | 311 | 1.0 | 3.0 | 0.02 | 0.15 | 0.16 | 87 | 1010.3 |
| 20260507031330 | 57 | 302 | 1.0 | 3.0 | 0.01 | 0.14 | 0.14 | 87 | 1010.4 |
| 20260507030826 | 57 | 315 | 1.0 | 5.0 | 0.00 | 0.13 | 0.14 | 86 | 1010.2 |
| 20260507030326 | 57 | 13 | 1.0 | 5.0 | 0.00 | 0.13 | 0.13 | 85 | 1010.2 |
| 20260507025825 | 58 | 324 | 2.0 | 8.0 | 0.00 | 0.13 | 0.13 | 84 | 1009.9 |
| 20260507025326 | 58 | 294 | 3.0 | 8.0 | 0.00 | 0.13 | 0.13 | 83 | 1010.0 |
| 20260507024826 | 58 | 321 | 2.0 | 7.0 | 0.00 | 0.13 | 0.13 | 83 | 1010.1 |
| 20260507024325 | 58 | 347 | 2.0 | 7.0 | 0.01 | 0.13 | 0.13 | 83 | 1010.2 |
| 20260507023826 | 59 | 302 | 2.0 | 6.0 | 0.01 | 0.13 | 0.13 | 83 | 1010.2 |
| 20260507023326 | 59 | 347 | 2.0 | 8.0 | 0.01 | 0.13 | 0.13 | 84 | 1010.0 |
| 20260507022827 | 59 | 315 | 2.0 | 8.0 | 0.01 | 0.13 | 0.13 | 84 | 1010.1 |
| 20260507021814 | 59 | 295 | 2.0 | 7.0 | 0.01 | 0.13 | 0.13 | 86 | 1009.8 |
| 20260507021308 | 60 | 342 | 2.0 | 7.0 | 0.01 | 0.13 | 0.13 | 87 | 1009.7 |
| 20260507020308 | 60 | 296 | 2.0 | 7.0 | 0.01 | 0.13 | 0.13 | 87 | 1009.7 |
| 20260507015807 | 60 | 336 | 1.0 | 3.0 | 0.01 | 0.13 | 0.13 | 87 | 1010.0 |
| 20260507014804 | 60 | 294 | 2.0 | 4.0 | 0.01 | 0.13 | 0.13 | 86 | 1009.7 |
| 20260507014303 | 61 | 342 | 2.0 | 4.0 | 0.00 | 0.12 | 0.12 | 85 | 1009.6 |
| 20260507013804 | 61 | 302 | 2.0 | 7.0 | 0.00 | 0.12 | 0.12 | 85 | 1010.0 |
| 20260507013303 | 61 | 296 | 2.0 | 7.0 | 0.00 | 0.12 | 0.12 | 85 | 1009.9 |
| 20260507012802 | 62 | 302 | 3.0 | 7.0 | 0.00 | 0.12 | 0.12 | 85 | 1009.8 |
| 20260507012305 | 62 | 300 | 3.0 | 7.0 | 0.00 | 0.12 | 0.12 | 84 | 1009.9 |
| 20260507011803 | 62 | 319 | 2.0 | 4.0 | 0.00 | 0.12 | 0.12 | 83 | 1009.8 |
| 20260507011300 | 62 | 324 | 2.0 | 5.0 | 0.00 | 0.12 | 0.12 | 83 | 1010.1 |
| 20260507010801 | 62 | 304 | 2.0 | 5.0 | 0.00 | 0.12 | 0.12 | 82 | 1010.2 |
| 20260507010258 | 62 | 311 | 3.0 | 5.0 | 0.00 | 0.12 | 0.12 | 82 | 1010.0 |
| 20260507005758 | 62 | 333 | 3.0 | 6.0 | 0.00 | 0.12 | 0.12 | 82 | 1010.0 |
| 20260507005258 | 63 | 302 | 3.0 | 9.0 | 0.00 | 0.12 | 0.12 | 83 | 1009.9 |
| 20260507004758 | 63 | 302 | 3.0 | 9.0 | 0.00 | 0.12 | 0.12 | 83 | 1009.8 |
| 20260507004259 | 63 | 295 | 3.0 | 5.0 | 0.00 | 0.12 | 0.12 | 84 | 1009.9 |
| 20260507003246 | 64 | 284 | 2.0 | 7.0 | 0.00 | 0.12 | 0.12 | 88 | 1009.6 |
| 20260507002740 | 64 | 310 | 1.0 | 2.0 | 0.00 | 0.12 | 0.12 | 89 | 1009.4 |
| 20260507001221 | 64 | 271 | 0.0 | 1.0 | 0.00 | 0.12 | 0.12 | 89 | 1009.1 |
| 20260507000715 | 64 | 271 | 0.0 | 1.0 | 0.00 | 0.12 | 0.12 | 89 | 1009.0 |
| 20260506235157 | 65 | 271 | 0.0 | 1.0 | 0.00 | 0.12 | 0.12 | 87 | 1008.4 |
| 20260506234651 | 65 | 271 | 0.0 | 1.0 | 0.00 | 0.12 | 0.12 | 87 | 1008.4 |
| 20260506234145 | 65 | 271 | 0.0 | 2.0 | 0.00 | 0.12 | 0.12 | 86 | 1008.3 |
| 20260506233640 | 65 | 271 | 0.0 | 2.0 | 0.00 | 0.12 | 0.12 | 86 | 1008.4 |
| 20260506232627 | 65 | 135 | 0.0 | 0.0 | 0.00 | 0.12 | 0.12 | 86 | 1008.3 |
| 20260506232121 | 65 | 135 | 0.0 | 1.0 | 0.00 | 0.12 | 0.12 | 86 | 1008.2 |
| 20260506231110 | 66 | 135 | 0.0 | 0.0 | 0.00 | 0.12 | 0.12 | 86 | 1008.3 |
| 20260506230058 | 66 | 135 | 0.0 | 1.0 | 0.00 | 0.12 | 0.12 | 85 | 1008.2 |
| 20260506225551 | 66 | 135 | 0.0 | 2.0 | 0.00 | 0.12 | 0.12 | 85 | 1008.3 |
| 20260506225044 | 66 | 135 | 0.0 | 2.0 | 0.00 | 0.12 | 0.12 | 85 | 1008.2 |
| 20260506224543 | 66 | 135 | 0.0 | 2.0 | 0.00 | 0.12 | 0.12 | 85 | 1008.2 |
| 20260506224033 | 66 | 135 | 0.0 | 2.0 | 0.00 | 0.12 | 0.12 | 85 | 1008.2 |
| 20260506223528 | 66 | 135 | 0.0 | 1.0 | 0.00 | 0.12 | 0.12 | 85 | 1008.2 |
| 20260506223021 | 66 | 135 | 0.0 | 1.0 | 0.00 | 0.12 | 0.12 | 85 | 1008.1 |
| 20260506222515 | 66 | 135 | 0.0 | 1.0 | 0.00 | 0.12 | 0.12 | 85 | 1008.2 |
| 20260506221503 | 66 | 135 | 0.0 | 1.0 | 0.00 | 0.12 | 0.12 | 85 | 1008.2 |
| 20260506220957 | 66 | 135 | 0.0 | 1.0 | 0.00 | 0.12 | 0.12 | 85 | 1008.1 |
| 20260506215945 | 65 | 135 | 0.0 | 1.0 | 0.00 | 0.12 | 0.12 | 85 | 1008.2 |
| 20260506215440 | 65 | 135 | 0.0 | 1.0 | 0.00 | 0.12 | 0.12 | 85 | 1008.3 |
| 20260506214934 | 65 | 142 | 0.0 | 1.0 | 0.00 | 0.12 | 0.12 | 85 | 1008.1 |
| 20260506214427 | 65 | 153 | 0.0 | 2.0 | 0.00 | 0.12 | 0.12 | 85 | 1008.2 |
| 20260506213921 | 65 | 153 | 1.0 | 2.0 | 0.00 | 0.12 | 0.12 | 85 | 1008.2 |
| 20260506213415 | 65 | 180 | 1.0 | 2.0 | 0.00 | 0.12 | 0.12 | 85 | 1008.0 |
| 20260506212909 | 65 | 180 | 0.0 | 2.0 | 0.00 | 0.12 | 0.12 | 85 | 1007.9 |
| 20260506212404 | 65 | 180 | 1.0 | 2.0 | 0.00 | 0.12 | 0.12 | 84 | 1007.7 |
| 20260506210846 | 65 | 180 | 1.0 | 3.0 | 0.00 | 0.12 | 0.12 | 84 | 1007.5 |
| 20260506205834 | 66 | 137 | 1.0 | 2.0 | 0.00 | 0.12 | 0.12 | 84 | 1007.6 |
| 20260506205328 | 66 | 137 | 1.0 | 2.0 | 0.00 | 0.12 | 0.12 | 83 | 1007.5 |
| 20260506204827 | 66 | 163 | 1.0 | 4.0 | 0.00 | 0.12 | 0.12 | 83 | 1007.6 |
| 20260506204327 | 66 | 157 | 1.0 | 4.0 | 0.00 | 0.12 | 0.12 | 84 | 1007.5 |
| 20260506203827 | 66 | 167 | 1.0 | 4.0 | 0.00 | 0.12 | 0.12 | 83 | 1007.5 |
| 20260506202825 | 66 | 74 | 1.0 | 3.0 | 0.00 | 0.12 | 0.12 | 83 | 1007.7 |
| 20260506202326 | 66 | 148 | 1.0 | 3.0 | 0.00 | 0.12 | 0.12 | 84 | 1007.6 |
| 20260506201823 | 66 | 136 | 1.0 | 2.0 | 0.00 | 0.12 | 0.12 | 85 | 1007.5 |
| 20260506201322 | 66 | 107 | 1.0 | 2.0 | 0.00 | 0.12 | 0.12 | 85 | 1007.5 |
| 20260506200821 | 65 | 119 | 1.0 | 5.0 | 0.00 | 0.12 | 0.12 | 85 | 1007.5 |
| 20260506200323 | 65 | 166 | 1.0 | 5.0 | 0.00 | 0.12 | 0.12 | 84 | 1007.6 |
| 20260506195821 | 65 | 165 | 1.0 | 3.0 | 0.00 | 0.12 | 0.12 | 84 | 1007.6 |
| 20260506195322 | 65 | 184 | 1.0 | 3.0 | 0.00 | 0.12 | 0.12 | 83 | 1007.6 |
| 20260506194822 | 65 | 161 | 1.0 | 5.0 | 0.00 | 0.12 | 0.12 | 83 | 1007.6 |
| 20260506194320 | 65 | 169 | 1.0 | 5.0 | 0.00 | 0.12 | 0.12 | 84 | 1007.6 |
| 20260506193819 | 66 | 163 | 2.0 | 4.0 | 0.00 | 0.12 | 0.12 | 83 | 1007.5 |
| 20260506193321 | 66 | 184 | 2.0 | 4.0 | 0.00 | 0.12 | 0.12 | 83 | 1007.5 |
| 20260506192814 | 66 | 173 | 2.0 | 4.0 | 0.00 | 0.12 | 0.12 | 84 | 1007.5 |
| 20260506192315 | 66 | 162 | 1.0 | 4.0 | 0.00 | 0.12 | 0.12 | 84 | 1007.6 |
| 20260506191815 | 65 | 154 | 2.0 | 6.0 | 0.00 | 0.12 | 0.12 | 85 | 1007.6 |
| 20260506191314 | 65 | 171 | 2.0 | 6.0 | 0.00 | 0.12 | 0.12 | 84 | 1007.6 |
| 20260506190814 | 65 | 184 | 2.0 | 5.0 | 0.00 | 0.12 | 0.12 | 85 | 1007.7 |
| 20260506190314 | 65 | 188 | 3.0 | 6.0 | 0.00 | 0.12 | 0.12 | 84 | 1007.8 |
| 20260506185813 | 65 | 159 | 3.0 | 6.0 | 0.00 | 0.12 | 0.12 | 84 | 1007.7 |
| 20260506185314 | 65 | 198 | 3.0 | 6.0 | 0.00 | 0.12 | 0.12 | 84 | 1007.7 |
| 20260506184315 | 65 | 155 | 3.0 | 8.0 | 0.00 | 0.12 | 0.12 | 85 | 1007.8 |
| 20260506183309 | 64 | 169 | 3.0 | 8.0 | 0.00 | 0.12 | 0.12 | 86 | 1007.9 |
| 20260506182809 | 64 | 172 | 3.0 | 7.0 | 0.00 | 0.12 | 0.12 | 86 | 1007.9 |
| 20260506182311 | 64 | 144 | 3.0 | 7.0 | 0.00 | 0.12 | 0.12 | 87 | 1007.9 |
| 20260506181811 | 63 | 173 | 3.0 | 7.0 | 0.00 | 0.12 | 0.12 | 87 | 1007.9 |
| 20260506181310 | 63 | 171 | 2.0 | 5.0 | 0.00 | 0.12 | 0.12 | 88 | 1008.0 |
| 20260506180812 | 62 | 181 | 2.0 | 5.0 | 0.00 | 0.12 | 0.12 | 88 | 1008.0 |
| 20260506180310 | 62 | 88 | 3.0 | 6.0 | 0.00 | 0.12 | 0.12 | 88 | 1008.2 |
| 20260506175812 | 62 | 169 | 3.0 | 6.0 | 0.00 | 0.12 | 0.12 | 88 | 1008.2 |
| 20260506174812 | 62 | 204 | 2.0 | 5.0 | 0.00 | 0.12 | 0.12 | 89 | 1008.3 |
| 20260506174313 | 61 | 170 | 3.0 | 8.0 | 0.00 | 0.12 | 0.12 | 89 | 1008.3 |
| 20260506173809 | 61 | 189 | 3.0 | 8.0 | 0.00 | 0.12 | 0.12 | 89 | 1008.3 |
| 20260506173309 | 61 | 202 | 3.0 | 8.0 | 0.00 | 0.12 | 0.12 | 89 | 1008.2 |
| 20260506172807 | 61 | 165 | 3.0 | 8.0 | 0.00 | 0.12 | 0.12 | 89 | 1008.3 |
| 20260506172307 | 61 | 196 | 3.0 | 7.0 | 0.00 | 0.12 | 0.12 | 89 | 1008.3 |
| 20260506171304 | 60 | 184 | 3.0 | 9.0 | 0.00 | 0.12 | 0.12 | 90 | 1008.3 |
| 20260506170805 | 60 | 201 | 3.0 | 7.0 | 0.00 | 0.12 | 0.12 | 90 | 1008.3 |
| 20260506170305 | 60 | 190 | 4.0 | 9.0 | 0.00 | 0.12 | 0.12 | 90 | 1008.3 |
| 20260506165805 | 60 | 167 | 3.0 | 9.0 | 0.00 | 0.12 | 0.12 | 90 | 1008.3 |
| 20260506165305 | 60 | 155 | 3.0 | 9.0 | 0.00 | 0.12 | 0.12 | 91 | 1008.2 |
| 20260506164802 | 60 | 205 | 4.0 | 9.0 | 0.00 | 0.12 | 0.12 | 91 | 1008.2 |
| 20260506164300 | 60 | 200 | 4.0 | 8.0 | 0.00 | 0.12 | 0.12 | 91 | 1008.3 |
| 20260506163259 | 60 | 211 | 3.0 | 9.0 | 0.00 | 0.12 | 0.12 | 91 | 1008.3 |
| 20260506162758 | 59 | 196 | 4.0 | 9.0 | 0.00 | 0.12 | 0.12 | 91 | 1008.2 |
| 20260506161754 | 59 | 171 | 3.0 | 10.0 | 0.00 | 0.12 | 0.12 | 91 | 1008.5 |
| 20260506160753 | 59 | 189 | 5.0 | 10.0 | 0.01 | 0.12 | 0.12 | 91 | 1008.5 |
| 20260506160253 | 59 | 188 | 5.0 | 10.0 | 0.02 | 0.12 | 0.12 | 91 | 1008.5 |
| 20260506155754 | 59 | 212 | 5.0 | 9.0 | 0.02 | 0.12 | 0.12 | 92 | 1008.6 |
| 20260506155254 | 59 | 205 | 5.0 | 10.0 | 0.03 | 0.12 | 0.12 | 92 | 1008.5 |
| 20260506154753 | 59 | 197 | 4.0 | 10.0 | 0.03 | 0.12 | 0.12 | 92 | 1008.4 |
| 20260506154253 | 59 | 176 | 4.0 | 10.0 | 0.04 | 0.12 | 0.12 | 92 | 1008.3 |
| 20260506153754 | 59 | 174 | 5.0 | 10.0 | 0.04 | 0.12 | 0.12 | 92 | 1008.3 |
| 20260506153255 | 59 | 204 | 5.0 | 10.0 | 0.04 | 0.12 | 0.12 | 92 | 1008.4 |
| 20260506152242 | 59 | 171 | 5.0 | 13.0 | 0.04 | 0.12 | 0.12 | 92 | 1008.5 |
| 20260506151737 | 59 | 175 | 4.0 | 13.0 | 0.04 | 0.12 | 0.12 | 92 | 1008.4 |
| 20260506151230 | 59 | 180 | 4.0 | 8.0 | 0.03 | 0.11 | 0.11 | 92 | 1008.7 |
| 20260506150723 | 59 | 177 | 4.0 | 8.0 | 0.03 | 0.11 | 0.11 | 92 | 1009.0 |
| 20260506150218 | 59 | 169 | 3.0 | 8.0 | 0.02 | 0.10 | 0.10 | 92 | 1009.2 |
| 20260506145712 | 59 | 195 | 3.0 | 7.0 | 0.03 | 0.10 | 0.10 | 92 | 1009.4 |
| 20260506145212 | 59 | 173 | 4.0 | 11.0 | 0.02 | 0.09 | 0.09 | 91 | 1009.4 |
| 20260506144709 | 59 | 184 | 5.0 | 11.0 | 0.03 | 0.09 | 0.09 | 91 | 1009.4 |
| 20260506144209 | 59 | 190 | 5.0 | 10.0 | 0.02 | 0.08 | 0.08 | 91 | 1009.2 |
| 20260506143709 | 59 | 192 | 5.0 | 9.0 | 0.03 | 0.08 | 0.08 | 91 | 1009.3 |
| 20260506143209 | 59 | 190 | 5.0 | 9.0 | 0.03 | 0.08 | 0.08 | 91 | 1009.2 |
| 20260506142710 | 59 | 167 | 5.0 | 10.0 | 0.03 | 0.08 | 0.08 | 91 | 1009.1 |
| 20260506141709 | 59 | 190 | 6.0 | 16.0 | 0.04 | 0.08 | 0.08 | 91 | 1009.2 |
| 20260506141209 | 59 | 193 | 6.0 | 16.0 | 0.04 | 0.08 | 0.08 | 91 | 1009.0 |
| 20260506140710 | 59 | 202 | 4.0 | 9.0 | 0.05 | 0.08 | 0.08 | 91 | 1008.8 |
| 20260506140210 | 59 | 188 | 4.0 | 7.0 | 0.06 | 0.08 | 0.08 | 91 | 1008.8 |
| 20260506135710 | 59 | 190 | 5.0 | 8.0 | 0.05 | 0.07 | 0.07 | 91 | 1008.8 |
| 20260506134709 | 59 | 202 | 4.0 | 9.0 | 0.04 | 0.06 | 0.06 | 90 | 1009.3 |
| 20260506134210 | 59 | 187 | 4.0 | 9.0 | 0.05 | 0.06 | 0.06 | 90 | 1009.5 |
| 20260506133711 | 59 | 191 | 3.0 | 8.0 | 0.04 | 0.05 | 0.06 | 90 | 1009.5 |
| 20260506133212 | 59 | 173 | 3.0 | 7.0 | 0.05 | 0.05 | 0.05 | 90 | 1009.4 |
| 20260506132705 | 59 | 174 | 3.0 | 5.0 | 0.05 | 0.05 | 0.05 | 90 | 1009.4 |
| 20260506132159 | 59 | 186 | 3.0 | 6.0 | 0.05 | 0.05 | 0.05 | 90 | 1009.4 |
| 20260506131653 | 59 | 170 | 3.0 | 6.0 | 0.04 | 0.04 | 0.04 | 89 | 1009.4 |
| 20260506131147 | 60 | 178 | 3.0 | 6.0 | 0.04 | 0.04 | 0.04 | 89 | 1009.4 |
| 20260506130641 | 60 | 188 | 3.0 | 5.0 | 0.03 | 0.03 | 0.03 | 88 | 1009.5 |
| 20260506130135 | 60 | 159 | 2.0 | 5.0 | 0.02 | 0.02 | 0.02 | 88 | 1009.4 |
| 20260506125629 | 60 | 173 | 3.0 | 6.0 | 0.02 | 0.02 | 0.02 | 87 | 1009.4 |
| 20260506125123 | 60 | 180 | 3.0 | 7.0 | 0.02 | 0.02 | 0.02 | 87 | 1009.4 |
| 20260506124617 | 60 | 166 | 2.0 | 7.0 | 0.01 | 0.01 | 0.02 | 86 | 1009.3 |
| 20260506124114 | 60 | 198 | 2.0 | 5.0 | 0.01 | 0.01 | 0.01 | 86 | 1009.4 |
| 20260506123613 | 61 | 188 | 2.0 | 6.0 | 0.01 | 0.01 | 0.01 | 85 | 1009.4 |
| 20260506123111 | 61 | 172 | 2.0 | 6.0 | 0.00 | 0.00 | 0.00 | 84 | 1009.4 |
| 20260506122610 | 61 | 174 | 3.0 | 9.0 | 0.00 | 0.00 | 0.00 | 83 | 1009.5 |
| 20260506122112 | 62 | 167 | 3.0 | 9.0 | 0.00 | 0.00 | 0.00 | 82 | 1009.6 |
| 20260506121610 | 62 | 173 | 2.0 | 6.0 | 0.00 | 0.00 | 0.00 | 81 | 1009.6 |
| 20260506121109 | 62 | 182 | 3.0 | 6.0 | 0.00 | 0.00 | 0.00 | 80 | 1009.7 |
| 20260506120610 | 63 | 173 | 3.0 | 6.0 | 0.00 | 0.00 | 0.00 | 79 | 1009.8 |
| 20260506120109 | 63 | 176 | 3.0 | 7.0 | 0.00 | 0.00 | 0.00 | 77 | 1009.8 |
| 20260506115610 | 63 | 181 | 3.0 | 7.0 | 0.00 | 0.00 | 0.00 | 77 | 1009.8 |
| 20260506114608 | 63 | 179 | 3.0 | 7.0 | 0.00 | 0.00 | 0.00 | 77 | 1009.7 |
| 20260506114109 | 63 | 169 | 3.0 | 7.0 | 0.00 | 0.00 | 0.00 | 77 | 1009.4 |
| 20260506113606 | 63 | 173 | 3.0 | 9.0 | 0.00 | 0.00 | 0.00 | 77 | 1009.4 |
| 20260506113104 | 63 | 184 | 3.0 | 9.0 | 0.00 | 0.00 | 0.00 | 76 | 1009.3 |
| 20260506112603 | 63 | 174 | 4.0 | 8.0 | 0.00 | 0.00 | 0.00 | 76 | 1009.2 |
| 20260506111602 | 63 | 184 | 3.0 | 9.0 | 0.00 | 0.00 | 0.00 | 76 | 1009.2 |
| 20260506111102 | 63 | 196 | 3.0 | 8.0 | 0.00 | 0.00 | 0.00 | 75 | 1009.3 |
| 20260506110602 | 63 | 198 | 4.0 | 10.0 | 0.00 | 0.00 | 0.00 | 75 | 1009.2 |
| 20260506105602 | 64 | 168 | 4.0 | 11.0 | 0.00 | 0.00 | 0.00 | 74 | 1009.0 |
| 20260506105103 | 64 | 175 | 4.0 | 9.0 | 0.00 | 0.00 | 0.00 | 73 | 1009.0 |
| 20260506104603 | 64 | 167 | 4.0 | 7.0 | 0.00 | 0.00 | 0.00 | 73 | 1008.8 |
| 20260506104103 | 64 | 183 | 4.0 | 9.0 | 0.00 | 0.00 | 0.00 | 73 | 1008.6 |
| 20260506103602 | 64 | 205 | 4.0 | 11.0 | 0.00 | 0.00 | 0.00 | 72 | 1008.7 |
| 20260506102602 | 64 | 169 | 4.0 | 8.0 | 0.00 | 0.00 | 0.00 | 72 | 1008.6 |
| 20260506102101 | 64 | 176 | 4.0 | 8.0 | 0.00 | 0.00 | 0.00 | 72 | 1008.5 |
| 20260506101600 | 64 | 196 | 4.0 | 8.0 | 0.00 | 0.00 | 0.00 | 72 | 1008.5 |
| 20260506101102 | 64 | 178 | 4.0 | 8.0 | 0.00 | 0.00 | 0.00 | 72 | 1008.6 |
| 20260506100602 | 64 | 171 | 4.0 | 8.0 | 0.00 | 0.00 | 0.00 | 72 | 1008.6 |
| 20260506100058 | 64 | 173 | 4.0 | 9.0 | 0.00 | 0.00 | 0.00 | 71 | 1008.6 |
| 20260506095558 | 64 | 182 | 5.0 | 11.0 | 0.00 | 0.00 | 0.00 | 71 | 1008.6 |
| 20260506095057 | 64 | 190 | 4.0 | 11.0 | 0.00 | 0.00 | 0.00 | 71 | 1008.6 |
| 20260506094058 | 64 | 180 | 4.0 | 7.0 | 0.00 | 0.00 | 0.00 | 70 | 1008.6 |
| 20260506093556 | 64 | 178 | 4.0 | 7.0 | 0.00 | 0.00 | 0.00 | 70 | 1008.5 |
| 20260506093057 | 64 | 194 | 3.0 | 7.0 | 0.00 | 0.00 | 0.00 | 69 | 1008.6 |
| 20260506092558 | 65 | 163 | 3.0 | 6.0 | 0.00 | 0.00 | 0.00 | 69 | 1008.4 |
| 20260506091557 | 65 | 185 | 4.0 | 8.0 | 0.00 | 0.00 | 0.00 | 67 | 1008.6 |
| 20260506090558 | 66 | 175 | 4.0 | 9.0 | 0.00 | 0.00 | 0.00 | 67 | 1008.5 |
| 20260506085557 | 66 | 150 | 3.0 | 8.0 | 0.00 | 0.00 | 0.00 | 66 | 1008.7 |
| 20260506085056 | 66 | 207 | 3.0 | 7.0 | 0.00 | 0.00 | 0.00 | 66 | 1008.8 |
| 20260506084557 | 66 | 187 | 4.0 | 8.0 | 0.00 | 0.00 | 0.00 | 66 | 1008.8 |
| 20260506084058 | 66 | 165 | 4.0 | 8.0 | 0.00 | 0.00 | 0.00 | 66 | 1009.0 |
| 20260506083558 | 66 | 194 | 4.0 | 9.0 | 0.00 | 0.00 | 0.00 | 65 | 1009.0 |
| 20260506083056 | 66 | 180 | 4.0 | 10.0 | 0.00 | 0.00 | 0.00 | 65 | 1009.0 |
| 20260506082557 | 66 | 190 | 4.0 | 10.0 | 0.00 | 0.00 | 0.00 | 65 | 1009.0 |
| 20260506082056 | 66 | 187 | 4.0 | 9.0 | 0.00 | 0.00 | 0.00 | 64 | 1008.7 |
| 20260506081558 | 67 | 199 | 5.0 | 9.0 | 0.00 | 0.00 | 0.00 | 64 | 1008.8 |
| 20260506081058 | 67 | 186 | 4.0 | 9.0 | 0.00 | 0.00 | 0.00 | 64 | 1008.8 |
| 20260506080557 | 67 | 204 | 3.0 | 10.0 | 0.00 | 0.00 | 0.00 | 64 | 1008.8 |
| 20260506073057 | 67 | 198 | 4.0 | 12.0 | 0.00 | 0.00 | 0.00 | 62 | 1009.0 |
| 20260506072057 | 67 | 180 | 4.0 | 9.0 | 0.00 | 0.00 | 0.00 | 62 | 1009.1 |
| 20260506071551 | 67 | 182 | 4.0 | 9.0 | 0.00 | 0.00 | 0.00 | 61 | 1009.2 |
| 20260506070540 | 68 | 160 | 4.0 | 7.0 | 0.00 | 0.00 | 0.00 | 61 | 1009.2 |
| 20260506062454 | 69 | 188 | 4.0 | 7.0 | 0.00 | 0.00 | 0.00 | 59 | 1009.6 |
| 20260506061945 | 69 | 175 | 3.0 | 9.0 | 0.00 | 0.00 | 0.00 | 59 | 1009.6 |
| 20260506061439 | 69 | 190 | 3.0 | 9.0 | 0.00 | 0.00 | 0.00 | 58 | 1009.6 |